Terminal Aerodrome Forecast
Issued by NWS Portland, ME

Home | Current Version | Previous Version | Text Only | Print | Product List | Glossary On
Versions: 1 2 3 4 5 6 7 8 9 10 11 12 13 14 15 16 17 18 19 20
000
FTUS41 KGYX 121120
TAFCON
TAF
KCON 121120Z 1212/1312 00000KT 1SM -SN OVC015
      TEMPO 1212/1214 1/2SM SN OVC007
     FM121500 10005KT 1/2SM SN OVC008
     FM121800 10005KT 1/2SM RASN OVC008
     FM122100 09005KT 3SM RA BR OVC003=

USA.gov is the U.S. government's official web portal to all federal, state and local government web resources and services.